Tracking 30072 objects as of 15-Jan-2025
HD Live streaming from Space Station
objects crossing your sky now

STARLINK-30331

Track STARLINK-30331 now!
10-day predictions
STARLINK-30331 is classified as:


NORAD ID: 57740
Int'l Code: 2023-131J
Perigee: 565.5 km
Apogee: 566.9 km
Inclination: 43.0 °
Period: 95.8 minutes
Semi major axis: 6937 km
RCS: Unknown
Launch date: September 1, 2023
Source: United States (US)
Launch site: AIR FORCE EASTERN TEST RANGE (AFETR)
Your satellite tracking list
Your tracking list is empty




NASA's NSSDC Master Catalog

Two Line Element Set (TLE):
1 57740U 23131J   25014.08722086  .00000277  00000-0  35537-4 0  9991
2 57740  42.9988 291.9193 0001073 290.5953  69.4774 15.02541943 76805
Source of the keplerian elements: AFSPC